Location: Ravensburg
(47.7866°N, 9.6124°E)
Time: 17:18:37
(UTC+01:00)

CUTE-I - Visible Passes

Search period start: 14 March 2026 00:00
Search period end: 24 March 2026 00:00
Orbit: 803 x 819 km, 98.7° (Epoch: 13 March)

Date Brightness Start Highest point End Pass type
(mag) Time Alt. Az. Time Alt. Az. Time Alt. Az.
14 Mar ? 19:28:34 10° WSW 19:30:55 13° W 19:33:15 10° WNW visible
15 Mar ? 05:57:41 10° NE 06:02:13 28° E 06:06:43 10° SSE visible
15 Mar ? 19:03:16 10° SW 19:07:09 21° W 19:11:03 10° NW visible
16 Mar ? 05:34:56 10° NE 05:38:31 18° E 05:42:06 10° SE visible
17 Mar ? 05:13:12 10° ENE 05:14:44 11° E 05:16:15 10° ESE visible
18 Mar ? 19:35:35 10° WSW 19:37:08 11° W 19:38:42 10° WNW visible
19 Mar ? 19:09:45 10° SW 19:13:21 18° W 19:16:56 10° NW visible
20 Mar ? 05:40:49 10° NE 05:44:43 20° E 05:48:35 10° SE visible
21 Mar ? 05:18:37 10° ENE 05:20:57 13° E 05:23:16 10° ESE visible
23 Mar ? 19:16:19 10° SW 19:19:32 16° W 19:22:46 10° NW visible
